RCS-13 Weather Reports


Display with metric or nautical units.
time (UTC)temp
F
wind
direction
speed
MPH
gust
MPH
rain 1hr
in
rain 24hr
in
rain mn
in
humidity
%
barometer
mb
20260902200647 78 0.0 0.0 0.00 0.00 0.00 1015.6
20260902194646 78 0.0 0.0 0.00 0.00 0.00 1015.7
20260902192617 77 0.0 0.0 0.00 0.00 0.00 1015.7
20260902190945 78 0.0 0.0 0.00 0.00 0.00 1015.7
20260902184944 79 0.0 0.0 0.00 0.00 0.00 1015.5
20260902182943 80 0.0 0.0 0.00 0.00 0.00 1015.4
20260902180942 82 0.0 0.0 0.00 0.00 0.00 1015.0
20260902174940 82 0.0 0.0 0.00 0.00 0.00 1014.8
20260902172939 82 0.0 0.0 0.00 0.00 0.00 1014.7
20260902170938 82 0.0 0.0 0.00 0.00 0.00 1014.7
20260902164937 82 0.0 0.0 0.00 0.00 0.00 1014.8
20260902162935 82 0.0 0.0 0.00 0.00 0.00 1014.8
20260902160934 84 0.0 0.0 0.00 0.00 0.00 1014.8
20260902154933 84 0.0 0.0 0.00 0.00 0.00 1014.9
20260902152931 83 0.0 0.0 0.00 0.00 0.00 1015.0
20260902150930 83 0.0 0.0 0.00 0.00 0.00 1015.1
20260902144929 82 0.0 0.0 0.00 0.00 0.00 1015.1
20260902142928 81 0.0 0.0 0.00 0.00 0.00 1015.1
20260902140927 80 0.0 0.0 0.00 0.00 0.00 1015.1
20260902134925 81 0.0 0.0 0.00 0.00 0.00 1015.3
20260902133212 82 0.0 0.0 0.00 0.00 0.00 1017.4
20260902132839 83 0.0 0.0 0.00 0.00 0.00 1017.7
20260902115551 82 0.0 0.0 0.00 0.00 0.00 1013.9
20260902115454 82 0.0 0.0 0.00 0.00 0.00 1013.8
20260902114827 82 0.0 0.0 0.00 0.00 0.00 1013.9
20260902114738 82 0.0 0.0 0.00 0.00 0.00 1013.8
20260902114600 82 0.0 0.0 0.00 0.00 0.00 1013.8
20260902113537 80 0.0 0.0 0.00 0.00 0.00 1013.8
20260902113319 80 0.0 0.0 0.00 0.00 0.00 1013.9
20260902113222 80 0.0 0.0 0.00 0.00 0.00 1013.9
20260902110538 84 0.0 0.0 0.00 0.00 0.00 1014.0
20260902110016 84 0.0 0.0 0.00 0.00 0.00 1014.0
20260902104016 83 0.0 0.0 0.00 0.00 0.00 1014.1
20260902102016 83 0.0 0.0 0.00 0.00 0.00 1014.2
20260902101521 83 0.0 0.0 0.00 0.00 0.00 1014.3
20260902101437 83 0.0 0.0 0.00 0.00 0.00 1014.3
20260902100359 86 0.0 0.0 0.00 0.00 0.00 1014.0
20260902095806 80 0.0 0.0 0.00 0.00 0.00 1014.2
20260902095635 80 0.0 0.0 0.00 0.00 0.00 1014.2
20260902094321 80 0.0 0.0 0.00 0.00 0.00 1014.3
20260902094214 80 0.0 0.0 0.00 0.00 0.00 1014.2
20260902093822 81 0.0 0.0 0.00 0.00 0.00 1014.2
20260902093039 81 0.0 0.0 0.00 0.00 0.00 1014.0
20260902092808 82 0.0 0.0 0.00 0.00 0.00 1014.3